This is the latest recevied weather packets stored in our database for station/object W2GUX. If no packets are shown the sender has not sent any weather packets the latest 10 day(s).
| Time | Temp. | Humidity | Pressure | Rain* | Wind** | Luminosity | Snow |
|---|---|---|---|---|---|---|---|
| 1778186104 | 17.22° C | 27% | 1004.4 hPa | 0 mm | - | - | - |
| 1778185803 | 17.22° C | 27% | 1004.5 hPa | 0 mm | - | - | - |
| 1778185503 | 17.78° C | 27% | 1004.5 hPa | 0 mm | - | - | - |
| 1778185203 | 17.22° C | 27% | 1004.4 hPa | 0 mm | - | - | - |
| 1778184904 | 17.22° C | 27% | 1004.4 hPa | 0 mm | - | - | - |
| 1778184604 | 17.78° C | 26% | 1004.4 hPa | 0 mm | - | - | - |
| 1778184304 | 18.33° C | 26% | 1004.5 hPa | 0 mm | - | - | - |
| 1778184003 | 18.33° C | 26% | 1004.4 hPa | 0 mm | - | - | - |
| 1778183704 | 18.33° C | 26% | 1004.5 hPa | 0 mm | - | - | - |
| 1778183404 | 18.89° C | 26% | 1004.5 hPa | 0 mm | - | - | - |
| 1778183104 | 18.89° C | 25% | 1004.6 hPa | 0 mm | - | - | - |
| 1778182803 | 19.44° C | 26% | 1004.6 hPa | 0 mm | - | - | - |
| 1778182503 | 18.89° C | 25% | 1004.7 hPa | 0 mm | - | - | - |
| 1778182203 | 18.89° C | 28% | 1004.8 hPa | 0 mm | - | - | - |
| 1778181904 | 18.89° C | 26% | 1004.7 hPa | 0 mm | - | - | - |
| 1778181604 | 18.89° C | 26% | 1004.9 hPa | 0 mm | - | - | - |
| 1778181303 | 18.89° C | 25% | 1004.9 hPa | 0 mm | - | - | - |
| 1778181003 | 18.89° C | 26% | 1005.1 hPa | 0 mm | - | - | - |
| 1778180704 | 18.89° C | 26% | 1005.2 hPa | 0 mm | - | - | - |
| 1778180404 | 18.33° C | 27% | 1005.2 hPa | 0 mm | - | - | - |
| 1778180103 | 18.33° C | 25% | 1005.2 hPa | 0 mm | - | - | - |
| 1778179803 | 18.33° C | 27% | 1005.1 hPa | 0 mm | - | - | - |
| 1778179504 | 17.78° C | 27% | 1005.2 hPa | 0 mm | - | - | - |
| 1778179204 | 17.78° C | 28% | 1005.3 hPa | 0 mm | - | - | - |
| 1778178903 | 18.33° C | 27% | 1005.5 hPa | 0 mm | - | - | - |
* Rain latest hour (hover to see other rain measurements)
** Current wind speed in m/s (hover to see current wind gust speed)